2022/09/01 23:33:42+0000,-37.21,-44.77,-36.00,-48.03,-52.32,-55.34
2022/09/01 23:34:34+0000,-36.81,-44.57,-36.28,-48.51,-52.03,-55.16
2022/09/01 23:35:26+0000,-36.46,-44.77,-36.93,-47.74,-51.09,-55.14
2022/09/01 23:36:19+0000,-36.96,-44.55,-36.30,-49.14,-51.72,-55.16
2022/09/01 23:37:11+0000,-36.94,-44.55,-36.44,-47.83,-51.76,-55.28
2022/09/01 23:38:03+0000,-36.51,-44.74,-36.01,-44.57,-12.67,-55.42
2022/09/01 23:38:55+0000,-36.13,-44.26,-35.69,-47.08,-50.91,-55.41
2022/09/01 23:39:47+0000,-36.97,-44.44,-35.78,-47.85,-51.40,-55.00
2022/09/01 23:40:39+0000,-36.57,-43.94,-36.34,-47.94,-12.25,-55.31
2022/09/01 23:41:38+0000,-36.88,-43.98,-36.38,-48.51,-12.38,-55.56
2022/09/01 23:42:30+0000,-37.07,-44.66,-36.71,-46.52,-12.18,-55.19
2022/09/01 23:43:22+0000,-36.19,-44.76,-35.43,-46.47,-51.62,-55.51
2022/09/01 23:44:14+0000,-37.72,-44.37,-35.85,-47.94,-50.84,-54.45
2022/09/01 23:45:06+0000,-37.62,-44.64,-36.06,-48.90,-51.21,-54.97
2022/09/01 23:45:58+0000,-35.91,-43.67,-35.72,-47.68,-50.91,-54.90
2022/09/01 23:46:50+0000,-37.77,-43.65,-36.02,-49.05,-12.22,-54.70
2022/09/01 23:47:42+0000,-37.24,-44.15,-36.29,-47.52,-51.56,-55.22
2022/09/01 23:48:34+0000,-37.22,-43.95,-35.66,-48.90,-51.11,-55.29
2022/09/01 23:49:26+0000,-36.78,-44.25,-36.18,-47.55,-50.04,-55.72
2022/09/01 23:50:18+0000,-37.35,-44.73,-35.54,-47.40,-12.45,-54.98
2022/09/01 23:51:17+0000,-36.00,-43.97,-36.24,-46.52,-11.93,-55.37
2022/09/01 23:52:09+0000,-36.40,-43.66,-36.21,-47.63,-51.12,-55.24
2022/09/01 23:53:01+0000,-35.90,-43.62,-35.51,-48.22,-52.89,-55.19
2022/09/01 23:53:53+0000,-37.13,-44.58,-36.03,-48.37,-12.10,-55.35
2022/09/01 23:54:45+0000,-37.60,-44.37,-35.69,-47.59,-11.88,-55.32
2022/09/01 23:55:37+0000,-35.65,-44.15,-36.26,-46.59,-51.13,-55.24
2022/09/01 23:56:29+0000,-37.26,-43.86,-36.31,-47.98,-52.49,-55.43
2022/09/01 23:57:21+0000,-35.20,-44.24,-36.24,-49.12,-52.45,-55.39
2022/09/01 23:58:13+0000,-37.66,-44.42,-35.94,-48.13,-52.19,-55.58
2022/09/01 23:59:05+0000,-36.11,-44.00,-36.20,-48.98,-51.93,-55.07
2022/09/01 23:59:57+0000,-36.13,-44.28,-35.39,-48.19,-51.93,-55.95
2022/09/02 00:00:53+0000,-36.75,-44.12,-36.00,-47.97,-51.86,-55.30
2022/09/02 00:01:53+0000,-37.99,-44.12,-35.53,-47.88,-48.63,-53.87
2022/09/02 00:02:45+0000,-37.84,-44.40,-35.53,-47.24,-48.22,-54.49
2022/09/02 00:03:37+0000,-36.96,-44.36,-35.55,-47.10,-47.52,-53.68
2022/09/02 00:04:29+0000,-37.07,-44.25,-36.16,-47.63,-47.94,-54.28
2022/09/02 00:05:21+0000,-36.00,-44.61,-36.81,-47.57,-47.03,-53.80
2022/09/02 00:06:13+0000,-36.56,-43.75,-36.75,-46.50,-46.81,-53.86
2022/09/02 00:07:05+0000,-37.23,-44.46,-36.32,-47.04,-47.28,-53.71
2022/09/02 00:07:57+0000,-36.45,-44.93,-36.54,-47.65,-47.32,-53.57
2022/09/02 00:08:49+0000,-37.30,-44.46,-35.66,-48.67,-47.76,-54.31
2022/09/02 00:09:41+0000,-36.84,-43.84,-36.37,-46.42,-47.73,-54.35
2022/09/02 00:10:33+0000,-36.91,-43.77,-36.46,-48.69,-48.48,-53.89
2022/09/02 00:11:33+0000,-36.01,-43.51,-36.19,-48.81,-47.87,-53.61
2022/09/02 00:12:25+0000,-36.24,-43.57,-36.58,-47.61,-48.20,-53.47
2022/09/02 00:13:17+0000,-37.12,-44.00,-36.55,-47.67,-47.85,-53.70
2022/09/02 00:14:09+0000,-37.86,-44.10,-36.62,-47.51,-48.14,-54.59
2022/09/02 00:15:01+0000,-36.96,-44.02,-36.58,-48.27,-46.56,-54.42
2022/09/02 00:15:53+0000,-36.45,-43.93,-35.87,-47.43,-47.67,-54.36
2022/09/02 00:16:45+0000,-36.67,-43.90,-36.25,-48.53,-47.83,-53.99
2022/09/02 00:17:37+0000,-35.95,-43.85,-37.06,-48.15,-47.96,-53.93
2022/09/02 00:18:29+0000,-36.79,-43.40,-37.32,-47.53,-47.55,-54.84
2022/09/02 00:19:21+0000,-36.25,-44.63,-36.74,-47.40,-47.02,-53.59
2022/09/02 00:20:13+0000,-36.11,-44.03,-37.08,-48.04,-48.32,-53.95
2022/09/02 00:21:13+0000,-35.87,-44.03,-36.57,-47.17,-48.10,-53.77
2022/09/02 00:22:05+0000,-36.89,-43.96,-36.87,-48.51,-47.33,-54.46
2022/09/02 00:22:57+0000,-36.97,-44.20,-36.32,-48.74,-47.78,-54.39
2022/09/02 00:23:49+0000,-35.78,-44.17,-36.66,-49.32,-46.47,-51.94
2022/09/02 00:24:41+0000,-37.02,-44.54,-37.11,-47.10,-47.08,-55.41
2022/09/02 00:25:33+0000,-35.97,-44.65,-37.00,-48.73,-46.98,-53.32
2022/09/02 00:26:25+0000,-37.61,-44.02,-36.46,-48.00,-52.04,-55.10
2022/09/02 00:27:17+0000,-36.83,-43.88,-36.39,-48.15,-51.26,-55.34
2022/09/02 00:28:09+0000,-37.25,-43.23,-36.31,-48.61,-51.82,-55.70
2022/09/02 00:29:01+0000,-36.62,-43.56,-36.29,-40.27,-50.54,-55.17
2022/09/02 00:29:53+0000,-36.68,-44.71,-36.22,-42.13,-50.96,-55.30
2022/09/02 00:30:45+0000,-34.75,-44.10,-36.29,-43.34,-51.95,-54.95
2022/09/02 00:31:44+0000,-36.78,-43.62,-36.50,-43.14,-51.74,-54.44
2022/09/02 00:32:36+0000,-35.86,-44.19,-36.53,-42.77,-51.79,-54.40
2022/09/02 00:33:28+0000,-37.38,-44.14,-36.66,-40.29,-49.54,-55.03
2022/09/02 00:34:20+0000,-36.00,-43.80,-36.59,-40.16,-49.24,-55.28
2022/09/02 00:35:12+0000,-36.44,-44.78,-36.67,-40.84,-48.93,-54.87
2022/09/02 00:36:04+0000,-34.77,-44.24,-36.74,-41.20,3.78,-55.05
2022/09/02 00:36:56+0000,-35.72,-43.96,-36.68,-40.51,-49.12,-54.80
2022/09/02 00:37:48+0000,-35.14,-44.33,-36.86,-40.97,-49.20,-54.76
2022/09/02 00:38:40+0000,-36.13,-43.94,-37.05,-39.81,-49.32,-55.08
2022/09/02 00:39:32+0000,-36.06,-44.19,-36.83,-39.15,-48.17,-54.98
2022/09/02 00:40:24+0000,-34.89,-44.13,-36.12,-39.53,-47.82,-54.85
2022/09/02 00:41:23+0000,-36.00,-44.35,-36.43,-39.35,-48.52,-55.08
2022/09/02 00:42:15+0000,-35.35,-43.87,-35.57,-39.49,-47.69,-54.65
2022/09/02 00:43:08+0000,-35.64,-44.67,-36.49,-39.30,-47.73,-54.94
2022/09/02 00:44:00+0000,-35.52,-44.45,-36.56,-39.56,-47.92,-54.75
2022/09/02 00:44:52+0000,-35.28,-44.44,-36.89,-38.00,-47.83,-54.58
2022/09/02 00:45:44+0000,-35.96,-43.94,-36.49,-39.49,-47.92,-55.12
2022/09/02 00:46:36+0000,-35.46,-43.48,-36.61,-39.22,-47.70,-54.28
2022/09/02 00:47:28+0000,-35.66,-44.07,-36.45,-39.57,-47.70,-54.80
2022/09/02 00:48:20+0000,-36.35,-44.11,-36.40,-39.08,-47.45,-54.60
2022/09/02 00:49:12+0000,-36.26,-43.89,-36.07,-38.12,-47.89,-54.41
2022/09/02 00:50:04+0000,-35.93,-44.15,-36.36,-39.40,-47.79,-54.61
2022/09/02 00:51:03+0000,-36.06,-44.54,-36.74,-38.77,-47.51,-54.72
2022/09/02 00:51:55+0000,-35.43,-44.38,-36.77,-38.54,-47.41,-54.65
2022/09/02 00:52:47+0000,-35.01,-43.63,-36.74,-38.13,-48.26,-54.87
2022/09/02 00:53:39+0000,-35.95,-43.53,-36.80,-37.71,-46.90,-54.25
2022/09/02 00:54:31+0000,-36.77,-43.79,-36.00,-38.49,-47.78,-54.01
2022/09/02 00:55:23+0000,-35.62,-44.65,-36.99,-38.36,-47.88,-54.15
2022/09/02 00:56:15+0000,-36.36,-43.88,-36.88,-38.96,-47.13,-54.37
2022/09/02 00:57:08+0000,-35.32,-44.26,-36.46,-37.19,-47.76,-54.61
2022/09/02 00:58:00+0000,-35.79,-44.62,-36.65,-38.87,-47.70,-54.80
2022/09/02 00:58:52+0000,-35.66,-44.19,-36.10,-38.52,-48.15,-54.18
2022/09/02 00:59:44+0000,-35.91,-44.70,-36.84,-37.27,-48.04,-50.34
2022/09/02 01:00:36+0000,-35.73,-44.44,-36.25,-38.29,-46.69,-52.52
2022/09/02 01:01:35+0000,-35.70,-44.93,-36.25,-37.10,-46.49,-52.16
2022/09/02 01:02:27+0000,-35.13,-44.23,-36.78,-38.15,-46.81,-52.34
2022/09/02 01:03:19+0000,-36.04,-44.40,-37.26,-37.41,-47.38,-51.74
2022/09/02 01:04:11+0000,-33.83,-44.51,-37.01,-37.92,-46.62,-52.30
2022/09/02 01:05:03+0000,-34.83,-44.36,-36.90,-37.92,-46.03,-51.95
2022/09/02 01:05:55+0000,-34.68,-43.69,-36.21,-37.02,-46.13,-51.97
2022/09/02 01:06:48+0000,-35.12,-43.85,-36.18,-38.44,-45.48,-52.08
2022/09/02 01:07:40+0000,-36.52,-44.67,-36.70,-37.04,-44.10,-51.71
2022/09/02 01:08:32+0000,-34.07,-43.85,-36.47,-38.16,-45.17,-52.33
2022/09/02 01:09:24+0000,-35.51,-44.52,-36.45,-38.13,-46.79,-51.61
2022/09/02 01:10:16+0000,-35.20,-44.01,-35.88,-38.11,-46.52,-51.56
2022/09/02 01:11:14+0000,-35.37,-43.84,-36.29,-37.16,-46.51,-52.25
2022/09/02 01:12:06+0000,-35.59,-44.90,-36.12,-37.26,-46.85,-51.82
2022/09/02 01:12:58+0000,-35.69,-43.69,-36.95,-38.59,-46.25,-51.75
2022/09/02 01:13:50+0000,-35.61,-44.47,-37.05,-38.54,-46.48,-52.50
2022/09/02 01:14:42+0000,-35.47,-44.04,-36.77,-37.48,-46.50,-51.74
2022/09/02 01:15:34+0000,-36.13,-43.81,-36.21,-38.63,-46.30,-52.17
2022/09/02 01:16:26+0000,-34.34,-44.52,-36.64,-38.48,-45.21,-52.02
2022/09/02 01:17:18+0000,-35.19,-43.88,-36.93,-38.57,-47.27,-52.58
2022/09/02 01:18:10+0000,-35.73,-43.05,-35.77,-37.89,-47.22,-51.96
2022/09/02 01:19:02+0000,-35.72,-43.94,-36.85,-38.19,-46.49,-49.70
2022/09/02 01:19:55+0000,-35.64,-43.37,-36.88,-38.03,-46.98,-52.82
2022/09/02 01:20:47+0000,-35.66,-42.73,-36.89,-36.72,-46.32,-51.78
2022/09/02 01:21:47+0000,-35.40,-44.18,-36.94,-36.88,-46.42,-51.91
2022/09/02 01:22:39+0000,-35.56,-43.50,-36.41,-37.01,-47.61,-52.78
2022/09/02 01:23:31+0000,-35.68,-44.51,-36.63,-38.06,-47.18,-52.97
2022/09/02 01:24:23+0000,-35.46,-44.50,-36.73,-37.92,-46.73,-53.72
2022/09/02 01:25:15+0000,-35.88,-43.24,-36.06,-37.60,-48.21,-53.91
2022/09/02 01:26:07+0000,-35.07,-44.21,-35.88,-37.64,-47.58,-53.63
2022/09/02 01:26:59+0000,-35.57,-44.20,-35.87,-38.16,-48.38,-53.68
2022/09/02 01:27:51+0000,-35.42,-44.40,-35.58,-39.15,-48.07,-54.50
2022/09/02 01:28:43+0000,-35.50,-41.89,-36.22,-37.57,-47.69,-53.93
2022/09/02 01:29:35+0000,-36.18,-44.60,-35.81,-37.85,-48.22,-53.48
2022/09/02 01:30:27+0000,-36.13,-44.33,-36.81,-39.35,-47.57,-54.07
2022/09/02 01:31:27+0000,-35.33,-43.57,-36.15,-38.09,-47.57,-53.72
2022/09/02 01:32:19+0000,-35.47,-42.71,-36.25,-38.87,-47.47,-53.54
2022/09/02 01:33:11+0000,-35.91,-42.09,-36.27,-37.08,-47.56,-53.22
2022/09/02 01:34:03+0000,-35.71,-44.36,-36.94,-37.21,-47.33,-52.83
2022/09/02 01:34:55+0000,-35.99,-42.98,-36.42,-38.66,-48.46,-53.58
2022/09/02 01:35:47+0000,-36.56,-42.25,-35.51,-37.59,-47.28,-53.58
2022/09/02 01:36:39+0000,-35.81,-43.06,-35.69,-37.77,-48.00,-53.21
2022/09/02 01:37:31+0000,-35.71,-43.52,-36.38,-38.26,-47.53,-53.46
2022/09/02 01:38:23+0000,-34.82,-43.64,-36.34,-38.04,-47.69,-52.95
2022/09/02 01:39:15+0000,-35.15,-41.93,-36.03,-37.35,-48.06,-53.10
2022/09/02 01:40:07+0000,-34.66,-43.49,-36.40,-37.07,-47.93,-53.37
2022/09/02 01:41:06+0000,-35.59,-43.71,-36.30,-36.93,-47.12,-52.91
2022/09/02 01:41:58+0000,-33.70,-43.40,-36.67,-37.77,-47.47,-52.83
2022/09/02 01:42:50+0000,-34.96,-42.72,-35.86,-37.79,-47.08,-53.53
2022/09/02 01:43:42+0000,-35.18,-41.00,-35.98,-36.51,-47.72,-54.10
2022/09/02 01:44:34+0000,-35.95,-43.64,-35.50,-37.83,-47.26,-53.52
2022/09/02 01:45:26+0000,-35.53,-43.82,-35.80,-37.54,-47.31,-53.39
2022/09/02 01:46:18+0000,-35.08,-41.83,-35.54,-36.91,-47.08,-53.36
2022/09/02 01:47:10+0000,-35.98,-42.58,-36.08,-37.12,-46.41,-53.29
2022/09/02 01:48:02+0000,-35.11,-43.94,-36.19,-37.04,-47.13,-52.86
2022/09/02 01:48:54+0000,-36.19,-43.87,-35.61,-37.25,-46.44,-53.04
2022/09/02 01:49:47+0000,-36.04,-43.17,-36.12,-37.51,-47.51,-52.71
2022/09/02 01:50:39+0000,-35.24,-43.66,-35.93,-37.66,-48.06,-52.91
2022/09/02 01:51:38+0000,-35.82,-43.26,-35.88,-37.50,-48.11,-52.74
2022/09/02 01:52:30+0000,-36.28,-43.79,-35.80,-36.91,-47.60,-52.53
2022/09/02 01:53:22+0000,-34.75,-43.98,-35.64,-38.46,-47.20,-52.25
2022/09/02 01:54:14+0000,-35.92,-43.39,-35.78,-36.87,-47.45,-53.04
2022/09/02 01:55:06+0000,-35.92,-43.74,-35.51,-39.41,-47.96,-53.83
2022/09/02 01:55:58+0000,-36.09,-43.64,-36.00,-38.48,-49.25,-53.48
2022/09/02 01:56:50+0000,-36.57,-43.34,-36.35,-38.83,-47.80,-52.95
2022/09/02 01:57:42+0000,-35.30,-43.51,-35.36,-39.03,-48.49,-53.28
2022/09/02 01:58:34+0000,-35.63,-44.09,-35.73,-39.31,-48.82,-53.00
2022/09/02 01:59:26+0000,-36.18,-44.49,-36.13,-38.56,-46.97,-51.81
2022/09/02 02:00:18+0000,-35.46,-43.60,-35.72,-38.97,-47.19,-50.21
2022/09/02 02:01:18+0000,-35.08,-43.19,-35.74,-39.24,-46.52,-51.94
2022/09/02 02:02:10+0000,-35.23,-44.20,-36.11,-37.63,-46.41,-51.42
2022/09/02 02:03:02+0000,-35.03,-43.88,-36.23,-39.80,-46.30,-51.64
2022/09/02 02:03:54+0000,-35.35,-44.57,-36.27,-38.28,-46.61,-51.03
2022/09/02 02:04:46+0000,-36.00,-44.12,-35.07,-37.67,-46.49,-52.12
2022/09/02 02:05:38+0000,-35.65,-43.31,-35.94,-36.62,-46.61,-51.12
2022/09/02 02:06:30+0000,-35.61,-44.34,-35.41,-38.90,-45.99,-51.30
2022/09/02 02:07:22+0000,-35.22,-44.23,-36.39,-38.41,-46.31,-51.43
2022/09/02 02:08:14+0000,-35.36,-44.20,-35.76,-37.97,-46.52,-52.06
2022/09/02 02:09:06+0000,-35.52,-44.70,-35.08,-37.79,-46.42,-51.08
2022/09/02 02:09:59+0000,-35.71,-43.71,-36.06,-38.31,-46.27,-51.51
2022/09/02 02:10:51+0000,-35.06,-44.33,-35.61,-38.37,-46.64,-51.80
2022/09/02 02:11:49+0000,-35.51,-43.28,-36.42,-38.57,-46.79,-51.62
2022/09/02 02:12:41+0000,-36.03,-43.88,-35.94,-38.28,-46.99,-51.14
2022/09/02 02:13:33+0000,-35.86,-43.80,-36.01,-38.78,-45.16,-51.55
2022/09/02 02:14:25+0000,-35.76,-43.78,-36.06,-37.87,-46.81,-51.52
2022/09/02 02:15:17+0000,-36.27,-43.23,-35.63,-38.48,-46.78,-51.41
2022/09/02 02:16:09+0000,-36.23,-43.96,-35.59,-38.24,-46.60,-51.91
2022/09/02 02:17:01+0000,-35.76,-43.39,-36.02,-37.85,-46.15,-50.29
2022/09/02 02:17:53+0000,-35.23,-43.42,-36.24,-39.20,-46.57,-51.51
2022/09/02 02:18:45+0000,-35.59,-43.11,-35.93,-36.95,-46.43,-51.51
2022/09/02 02:19:37+0000,-34.65,-44.61,-36.43,-37.56,-46.23,-51.39
2022/09/02 02:20:29+0000,-35.15,-43.71,-35.58,-37.32,-46.11,-50.84
2022/09/02 02:21:27+0000,-35.69,-42.53,-36.46,-37.33,-46.17,-49.49
2022/09/02 02:22:20+0000,-35.96,-43.34,-36.27,-36.98,-45.51,-52.30
2022/09/02 02:23:12+0000,-35.92,-42.15,-36.45,-37.19,-46.30,-51.88
2022/09/02 02:24:04+0000,-36.09,-43.20,-35.63,-37.67,-45.14,-52.38
2022/09/02 02:24:56+0000,-35.21,-42.89,-36.19,-37.97,-47.58,-53.56
2022/09/02 02:25:48+0000,-36.80,-42.72,-36.40,-37.37,-47.09,-53.67
2022/09/02 02:26:40+0000,-35.62,-42.65,-36.26,-37.49,-46.53,-53.09
2022/09/02 02:27:32+0000,-34.25,-41.27,-36.39,-37.09,-46.53,-53.85
2022/09/02 02:28:24+0000,-33.77,-43.41,-35.93,-38.02,-46.86,-53.13
2022/09/02 02:29:16+0000,-35.78,-42.57,-35.73,-37.85,-46.98,-53.79
2022/09/02 02:30:08+0000,-35.04,-42.64,-35.97,-38.92,-46.62,-53.49
2022/09/02 02:31:07+0000,-35.26,-44.31,-36.21,-37.95,-47.27,-53.64
2022/09/02 02:31:59+0000,-35.52,-42.90,-36.36,-38.14,-48.02,-53.21
2022/09/02 02:32:51+0000,-34.33,-43.90,-36.40,-36.75,-46.94,-53.44
2022/09/02 02:33:43+0000,-35.47,-42.76,-35.87,-38.34,-47.02,-53.74
2022/09/02 02:34:35+0000,-34.87,-42.40,-35.95,-38.19,-46.67,-53.74
2022/09/02 02:35:27+0000,-34.69,-42.05,-36.21,-37.27,-47.24,-53.28
2022/09/02 02:36:19+0000,-36.06,-43.23,-35.91,-38.02,-46.59,-53.77
2022/09/02 02:37:11+0000,-35.83,-43.07,-36.09,-38.75,-46.68,-53.58
2022/09/02 02:38:03+0000,-35.20,-43.66,-36.09,-38.38,-46.63,-53.61
2022/09/02 02:38:56+0000,-36.15,-42.86,-36.27,-37.51,-46.77,-53.90
2022/09/02 02:39:48+0000,-35.47,-41.80,-35.71,-38.07,-46.60,-53.41
2022/09/02 02:40:40+0000,-35.04,-42.12,-36.00,-38.42,-46.58,-53.51
2022/09/02 02:41:39+0000,-36.02,-42.17,-36.18,-38.49,-46.72,-53.45
2022/09/02 02:42:31+0000,-35.81,-42.13,-35.92,-37.00,-46.04,-52.81
2022/09/02 02:43:23+0000,-34.75,-43.26,-35.09,-36.38,-43.55,-52.21
2022/09/02 02:44:15+0000,-36.38,-40.95,-35.72,-37.17,-46.89,-53.55
2022/09/02 02:45:07+0000,-35.06,-43.54,-36.18,-37.77,-49.18,-53.58
2022/09/02 02:45:59+0000,-35.40,-42.60,-35.70,-36.58,-49.09,-53.91
2022/09/02 02:46:51+0000,-34.80,-43.82,-35.62,-36.86,-49.53,-53.84
2022/09/02 02:47:43+0000,-33.44,-42.44,-36.37,-38.31,-49.51,-53.63
2022/09/02 02:48:35+0000,-35.21,-42.53,-36.68,-37.94,-49.67,-53.88
2022/09/02 02:49:27+0000,-34.39,-41.42,-36.54,-36.53,-49.43,-53.72
2022/09/02 02:50:19+0000,-35.11,-43.22,-37.09,-38.23,-49.25,-53.68
2022/09/02 02:51:18+0000,-35.61,-42.02,-36.90,-38.70,-50.91,-53.10
2022/09/02 02:52:10+0000,-35.48,-43.10,-36.29,-38.54,-50.60,-53.59
2022/09/02 02:53:02+0000,-35.78,-42.49,-37.14,-36.72,-51.15,-53.19
2022/09/02 02:53:54+0000,-35.24,-42.30,-36.99,-37.14,-50.10,-53.55
2022/09/02 02:54:47+0000,-35.20,-43.50,-37.54,-37.48,-49.30,-53.64
2022/09/02 02:55:39+0000,-36.74,-43.44,-37.83,-38.65,-49.39,-53.54
2022/09/02 02:56:31+0000,-35.90,-42.22,-36.70,-37.84,-49.21,-53.98
2022/09/02 02:57:23+0000,-35.95,-43.94,-36.64,-36.88,-49.60,-53.26
2022/09/02 02:58:15+0000,-34.89,-41.11,-37.27,-38.31,-48.77,-53.24
2022/09/02 02:59:07+0000,-34.94,-44.53,-36.82,-38.03,-49.53,-53.55
2022/09/02 02:59:59+0000,-34.22,-42.62,-37.30,-36.72,-49.41,-53.29
2022/09/02 03:00:51+0000,-35.46,-42.02,-36.69,-36.92,-49.35,-53.72
2022/09/02 03:01:51+0000,-35.97,-43.06,-36.61,-37.50,-49.10,-53.30
2022/09/02 03:02:43+0000,-35.91,-43.10,-37.70,-37.92,-49.11,-53.46
2022/09/02 03:03:35+0000,-35.99,-44.34,-37.07,-38.62,-49.96,-53.54
2022/09/02 03:04:27+0000,-35.94,-43.08,-38.05,-37.70,-49.12,-53.79
2022/09/02 03:05:19+0000,-36.14,-43.07,-36.92,-38.78,-48.93,-53.56
2022/09/02 03:06:11+0000,-35.91,-43.02,-38.08,-38.05,-50.33,-53.80
2022/09/02 03:07:03+0000,-36.23,-42.75,-37.68,-39.28,-49.35,-53.80
2022/09/02 03:07:55+0000,-36.63,-42.50,-37.04,-37.33,-49.15,-53.47
2022/09/02 03:08:47+0000,-34.39,-41.84,-37.90,-37.58,-49.85,-53.84
2022/09/02 03:09:39+0000,-36.70,-42.27,-37.35,-37.40,-48.58,-53.54
2022/09/02 03:10:31+0000,-37.12,-42.51,-37.31,-37.20,-49.48,-53.77
2022/09/02 03:11:31+0000,-36.46,-42.47,-36.86,-37.34,-49.43,-54.07
2022/09/02 03:12:23+0000,-35.09,-43.18,-36.36,-37.94,-49.56,-54.48
2022/09/02 03:13:15+0000,-35.51,-43.96,-36.60,-37.91,-49.00,-54.54
2022/09/02 03:14:07+0000,-36.54,-44.21,-36.97,-38.55,-50.05,-54.32
2022/09/02 03:14:59+0000,-35.74,-43.03,-38.11,-37.48,-49.56,-54.38
2022/09/02 03:15:51+0000,-35.10,-43.24,-35.97,-36.77,-49.43,-53.70
2022/09/02 03:16:43+0000,-35.50,-43.43,-36.65,-38.07,-50.26,-53.97
2022/09/02 03:17:35+0000,-35.97,-43.08,-37.16,-37.80,-49.81,-53.78
2022/09/02 03:18:27+0000,-35.20,-42.79,-37.30,-36.86,-49.41,-53.56
2022/09/02 03:19:19+0000,-36.16,-42.08,-36.71,-36.57,-49.95,-53.42
2022/09/02 03:20:11+0000,-35.87,-42.08,-37.53,-37.48,-48.96,-54.00
2022/09/02 03:21:10+0000,-36.04,-42.10,-37.24,-39.19,-49.15,-54.35
2022/09/02 03:22:02+0000,-35.61,-42.53,-37.10,-37.34,-49.70,-53.55
2022/09/02 03:22:54+0000,-35.81,-41.69,-36.98,-37.65,-48.89,-54.22
2022/09/02 03:23:46+0000,-36.22,-41.76,-37.54,-38.78,-49.92,-54.07
2022/09/02 03:24:38+0000,-36.25,-42.04,-37.42,-38.19,-49.78,-53.85
2022/09/02 03:25:30+0000,-35.20,-42.49,-37.01,-37.57,-48.90,-53.44
2022/09/02 03:26:22+0000,-35.87,-43.32,-36.94,-38.04,-49.64,-54.80
2022/09/02 03:27:14+0000,-36.59,-42.58,-37.10,-38.00,-49.40,-54.26
2022/09/02 03:28:06+0000,-36.66,-43.32,-37.88,-37.74,-48.65,-53.57
2022/09/02 03:28:58+0000,-34.95,-41.64,-37.25,-38.06,-50.20,-53.62
2022/09/02 03:29:50+0000,-36.06,-44.57,-36.61,-37.82,-49.35,-53.44
2022/09/02 03:30:43+0000,-36.64,-42.80,-36.98,-37.24,-49.52,-54.07
2022/09/02 03:31:42+0000,-36.04,-43.07,-37.17,-38.28,-49.35,-53.95
2022/09/02 03:32:34+0000,-36.61,-39.61,-37.14,-38.75,-49.92,-53.62
2022/09/02 03:33:26+0000,-35.57,-41.98,-36.38,-38.16,-49.19,-53.22
2022/09/02 03:34:18+0000,-36.20,-42.21,-35.93,-37.82,-49.48,-53.83
2022/09/02 03:35:10+0000,-36.84,-42.63,-37.43,-37.44,-48.87,-53.27
2022/09/02 03:36:02+0000,-35.53,-41.49,-37.88,-36.87,-49.36,-54.02
2022/09/02 03:36:54+0000,-35.24,-40.94,-37.29,-37.68,-49.11,-53.06
2022/09/02 03:37:46+0000,-36.50,-43.17,-38.13,-37.88,-48.37,-52.99
2022/09/02 03:38:38+0000,-36.25,-43.75,-37.72,-37.66,-48.15,-52.98
2022/09/02 03:39:30+0000,-36.20,-42.04,-38.06,-38.21,-49.09,-53.41
2022/09/02 03:40:23+0000,-34.95,-44.93,-37.31,-38.18,-49.61,-53.91
2022/09/02 03:41:21+0000,-35.97,-43.73,-37.71,-37.77,-49.49,-53.36
2022/09/02 03:42:13+0000,-36.08,-43.49,-38.02,-38.09,-49.42,-53.90
2022/09/02 03:43:05+0000,-36.53,-42.83,-38.03,-37.78,-49.17,-53.41
2022/09/02 03:43:57+0000,-36.03,-42.92,-37.54,-37.55,-49.06,-53.91
2022/09/02 03:44:49+0000,-35.84,-44.45,-37.63,-37.53,-49.34,-53.21
2022/09/02 03:45:41+0000,-36.69,-43.23,-37.67,-37.78,-49.71,-53.55
2022/09/02 03:46:33+0000,-36.40,-43.30,-38.24,-38.12,-49.21,-53.57
2022/09/02 03:47:26+0000,-36.62,-43.23,-37.83,-37.98,-48.98,-53.32
2022/09/02 03:48:18+0000,-36.56,-43.13,-38.59,-37.60,-49.20,-53.36
2022/09/02 03:49:10+0000,-37.25,-44.53,-37.10,-38.66,-48.93,-54.10
2022/09/02 03:50:02+0000,-36.99,-42.25,-36.85,-37.62,-49.96,-53.93
2022/09/02 03:51:01+0000,-35.80,-43.49,-36.93,-39.02,-49.67,-53.94
2022/09/02 03:51:53+0000,-35.87,-44.65,-37.18,-37.36,-49.22,-54.14
2022/09/02 03:52:45+0000,-36.17,-43.86,-38.42,-37.43,-49.73,-53.92
2022/09/02 03:53:37+0000,-36.77,-44.97,-37.99,-37.59,-49.38,-54.45
2022/09/02 03:54:29+0000,-36.25,-42.59,-38.27,-37.66,-50.10,-53.56
2022/09/02 03:55:21+0000,-36.15,-44.30,-37.74,-39.75,-48.85,-54.20
2022/09/02 03:56:13+0000,-35.69,-44.15,-37.49,-38.15,-49.66,-53.83
2022/09/02 03:57:05+0000,-36.22,-42.84,-37.71,-39.02,-49.76,-53.26
2022/09/02 03:57:57+0000,-36.02,-42.62,-37.60,-37.79,-49.02,-54.35
2022/09/02 03:58:49+0000,-36.35,-44.41,-38.69,-37.88,-49.31,-53.74
2022/09/02 03:59:41+0000,-35.81,-44.45,-38.36,-37.76,-49.38,-53.87
2022/09/02 04:00:33+0000,-36.33,-43.73,-38.34,-38.14,-49.24,-53.69
2022/09/02 04:01:33+0000,-34.96,-44.50,-37.09,-38.77,-49.75,-53.72
2022/09/02 04:02:25+0000,-34.70,-44.65,-38.54,-37.42,-49.22,-54.19
2022/09/02 04:03:17+0000,-36.89,-44.05,-38.19,-36.85,-49.79,-53.51
2022/09/02 04:04:09+0000,-36.69,-44.29,-38.06,-37.66,-48.70,-53.50
2022/09/02 04:05:01+0000,-35.38,-44.76,-38.15,-38.27,-49.00,-53.90
2022/09/02 04:05:53+0000,-35.47,-45.30,-37.30,-37.76,-49.05,-54.18
2022/09/02 04:06:45+0000,-35.83,-45.60,-38.62,-36.96,-49.47,-53.73
2022/09/02 04:07:37+0000,-36.22,-45.65,-37.88,-38.23,-49.07,-53.37
2022/09/02 04:08:29+0000,-35.76,-42.99,-37.03,-38.25,-49.81,-53.87
2022/09/02 04:09:21+0000,-33.54,-47.45,-36.97,-37.99,-48.45,-54.49
2022/09/02 04:10:14+0000,-35.44,-44.96,-36.96,-38.55,-49.53,-53.85
2022/09/02 04:11:13+0000,-36.05,-44.86,-37.22,-37.35,-48.68,-54.12
2022/09/02 04:12:05+0000,-35.22,-47.58,-37.52,-37.53,-49.20,-53.94
2022/09/02 04:12:57+0000,-36.82,-44.37,-37.76,-37.27,-49.37,-54.00
2022/09/02 04:13:49+0000,-35.99,-44.52,-37.63,-37.28,-49.07,-53.94
2022/09/02 04:14:41+0000,-35.60,-44.95,-37.08,-38.08,-49.15,-53.53
2022/09/02 04:15:33+0000,-34.78,-44.88,-37.56,-37.38,-48.68,-53.95
2022/09/02 04:16:25+0000,-35.93,-43.96,-36.95,-38.22,-49.17,-53.91
2022/09/02 04:17:17+0000,-35.43,-42.94,-37.96,-38.44,-48.65,-53.71
2022/09/02 04:18:09+0000,-35.41,-44.75,-37.36,-38.21,-49.18,-53.76
2022/09/02 04:19:01+0000,-35.31,-44.45,-37.98,-39.43,-50.79,-53.68
2022/09/02 04:19:53+0000,-35.11,-45.75,-37.52,-37.80,-50.39,-53.57
2022/09/02 04:20:46+0000,-36.31,-45.06,-37.51,-37.73,-50.58,-53.82
2022/09/02 04:21:44+0000,-34.58,-44.86,-37.67,-37.88,-51.26,-53.58
2022/09/02 04:22:36+0000,-35.96,-46.06,-37.76,-38.04,-42.99,-44.58
2022/09/02 04:23:28+0000,-35.31,-44.81,-37.39,-37.41,-32.83,-45.98
2022/09/02 04:24:20+0000,-36.42,-46.59,-37.87,-38.57,-36.81,-47.16
2022/09/02 04:25:12+0000,-35.44,-44.47,-36.72,-37.34,-37.19,-46.64
2022/09/02 04:26:04+0000,-35.35,-44.38,-37.97,-37.41,-36.69,-47.08
2022/09/02 04:26:56+0000,-35.35,-43.75,-37.45,-38.12,-36.20,-47.15
2022/09/02 04:27:48+0000,-35.28,-44.05,-37.74,-38.08,-37.90,-47.16
2022/09/02 04:28:40+0000,-35.77,-44.04,-38.40,-38.20,-37.81,-46.54
2022/09/02 04:29:32+0000,-35.85,-43.00,-37.29,-36.86,-38.17,-48.34
2022/09/02 04:30:25+0000,-36.30,-41.83,-37.50,-37.07,-37.90,-48.26
2022/09/02 04:31:24+0000,-35.20,-42.67,-37.14,-38.67,-38.61,-47.65
2022/09/02 04:32:16+0000,-36.03,-43.28,-37.82,-37.70,-38.06,-47.62
2022/09/02 04:33:08+0000,-34.13,-43.12,-37.38,-38.52,-38.53,-48.36
2022/09/02 04:34:00+0000,-36.00,-41.96,-36.79,-37.84,-38.32,-47.83
2022/09/02 04:34:52+0000,-35.77,-44.71,-37.81,-37.80,-38.36,-47.21
2022/09/02 04:35:44+0000,-36.46,-41.81,-37.48,-38.22,-38.50,-48.12
2022/09/02 04:36:36+0000,-35.71,-44.80,-37.41,-37.72,-38.80,-46.42
2022/09/02 04:37:28+0000,-34.77,-42.49,-37.24,-37.70,-38.17,-47.41
2022/09/02 04:38:20+0000,-36.04,-43.59,-37.19,-38.50,-38.65,-47.79
2022/09/02 04:39:12+0000,-35.64,-42.93,-37.22,-37.44,-38.00,-46.95
2022/09/02 04:40:04+0000,-35.39,-42.78,-36.71,-38.39,-41.14,-49.49
2022/09/02 04:41:03+0000,-35.13,-43.36,-37.03,-38.23,-40.89,-49.51
2022/09/02 04:41:55+0000,-36.16,-43.22,-37.33,-38.33,-41.42,-49.01
2022/09/02 04:42:47+0000,-35.46,-42.64,-37.14,-37.23,-41.27,-49.55
2022/09/02 04:43:39+0000,-35.00,-42.29,-36.95,-38.53,-43.55,-50.05
2022/09/02 04:44:31+0000,-36.26,-43.27,-37.16,-38.80,-43.58,-50.47
2022/09/02 04:45:23+0000,-34.74,-43.06,-37.35,-37.66,-42.97,-48.47
2022/09/02 04:46:15+0000,-35.20,-42.59,-37.31,-38.12,-42.58,-49.86
2022/09/02 04:47:07+0000,-34.89,-43.79,-36.59,-38.26,-42.31,-49.60